Погода в Новгородском

Украина / Донецкая область     48°19′50″N   37°50′26″E
темп.,
°C
ветер,
м/с
пор.,
м/с
влажн.,
%
обл.,
%
осадки,
мм/ч
давл.,
гПа
погр.,
м
12 апреля, пн
пн1200:00+10всв51084100 0.0 1021636
03:00+8св3890100 0.0 1021281
06:00+7ссв2596100 0.0 1020134
09:00+11в3477100 0.0 1020401
12:00+15юв3362100 0.0 1020881
15:00+16ю346086 0.0 1020982
18:00+13ююв4576100 0.0 1021517
21:00+12ю2382100 0.1 1022199
13 апреля, вт
вт1300:00+11юз2283100 0.0 1022131
03:00+10з1284100 0.0 1022105
06:00+9зсз2286100 0.0 102287
09:00+10сз2283100 0.0 1022211
12:00+12з2178100 0.0 1021513
15:00+13юз2271100 0.0 1021720
18:00+11ююз3478100 0.0 1021262
21:00+10ююв2582100 0.2 1022251
14 апреля, ср
ср1400:00+10ююз238099 0.0 1020145
03:00+8ююз117899 0.0 102012
06:00+8з118798 0.0 101912
09:00+10зюз0179100 0.0 1019102
12:00+11юв1276100 0.4 1019405
15:00+14юв236094 0.4 10181060
18:00+15ююз1259100 0.0 1016246
21:00+11з2272100 0.1 101711
15 апреля, чт
чт1500:00+10з1177100 0.0 101611
03:00+9зюз1180100 0.0 101613
06:00+8з22885 0.0 101521
09:00+12юз226884 0.0 1015452
12:00+16ю344532 0.0 10141426
15:00+17ю6639100 0.0 10132247
18:00+14ююз6755100 0.0 10141248
21:00+11ююз487340 0.0 1015604
16 апреля, пт
пт1600:00+10ю4881100 0.0 1014485
03:00+8юз47885 0.1 1015284
06:00+6юз37900 0.0 1016263
09:00+9ююз567242 0.0 1017742
12:00+11ююз5659100 0.0 10171318
15:00+11ююз5757100 0.0 10171503
18:00+10ю4560100 0.0 1018657
21:00+8ююз237417 0.0 101838